[[{"header":{"parameterUnit":"m.s-1","parameterCategory":2,"la1":30.2992,"la2":30.254,"lo1":-89.0895,"lo2":-89.0443,"dy":0.0025,"dx":0.0025,"nx":19,"ny":19,"refTime":"2026-03-20T03:00:00:Z","depth":"0","parameterNumber":2,"parameterNumberName":"U-component_of_CURRENTS"},"data":[0,0,0,0.1327,0.1331,0.1481,0.1482,0.1569,0.157,0,0,0,0,0,0,0,0,0,0,0,0.1258,0.1259,0.1327,0.1331,0.1481,0.1482,0.1569,0.157,0,0,0,0,0,0,0,0,0,0,0,0.1257,0.1258,0.126,0.1332,0.1481,0.1482,0.1569,0.1478,0,0,0,0,0,0,0,0,0,0,0.1344,0.1305,0.1258,0.126,0.1333,0.1481,0.1482,0.1475,0.1484,0.1475,0,0.1502,0,0.1551,0.1575,0.1575,0,0,0,0.1317,0.1298,0.1339,0.126,0.1334,0.1481,0.1409,0.148,0.149,0.1487,0.1504,0.1509,0.1552,0.1575,0.1575,0.1713,0.1714,0,0,0.1309,0.1283,0.1332,0.1345,0.1377,0.1405,0.1414,0.1488,0.1496,0.1505,0.1512,0.1553,0.1575,0.1576,0.1712,0.1713,0,0,0,0.1294,0.1277,0.1318,0.134,0.1384,0.1409,0.142,0.1493,0.1507,0.1513,0.1554,0.1576,0.1577,0.1711,0.1712,0.1764,0,0,0,0.1289,0.127,0.1314,0.13,0.1383,0.1458,0.1424,0.1501,0.1513,0.1554,0.1576,0.1577,0.171,0.1712,0.176,0.1788,0,0,0,0.125,0.1267,0.1285,0.1299,0.1373,0.1458,0.1477,0.1505,0.1538,0.1575,0.1578,0.1709,0.1711,0.1757,0.1782,0.1871,0,0,0,0.1216,0.127,0.1284,0.1364,0.1372,0.148,0.1477,0.1549,0.1584,0.1576,0.171,0.1712,0.1756,0.1779,0.1867,0.1971,0.1998,0,0,0.1268,0.1275,0.1325,0.1344,0.1438,0.1458,0.157,0.1606,0.1617,0.1673,0.1677,0.1762,0.1782,0.187,0.2105,0.2128,0,0,0,0.1333,0.1356,0.1391,0.1452,0.1522,0.1589,0.1637,0.1671,0.1745,0.1654,0.1795,0.1807,0.186,0.1915,0.1935,0.2,0.1723,0.1723,0.1723,0.1356,0.1399,0.1466,0.1526,0.159,0.1682,0.1754,0.1812,0.1799,0.1853,0.1873,0.2008,0.2068,0.2084,0.215,0.1898,0.1899,0.1899,0.1899,0.1405,0.1445,0.1495,0.1562,0.1636,0.1719,0.1859,0.1889,0.2024,0.1971,0.2021,0.1997,0.2108,0.2171,0.1903,0.1902,0.1902,0.1901,0.1901,0.1393,0.142,0.1449,0.1536,0.1632,0.174,0.1874,0.1973,0.2067,0.2137,0.2214,0.2214,0.2249,0.2163,0.2163,0.2164,0.2164,0.2165,0.2165,0.1366,0.1402,0.1431,0.152,0.1582,0.1697,0.1892,0.2016,0.2219,0.23,0.2301,0.2328,0.2089,0.2056,0.2173,0.2172,0.2171,0.217,0.2169,0.1357,0.1362,0.1411,0.1455,0.1597,0.1693,0.1868,0.2156,0.2319,0.2445,0.2596,0.2405,0.2407,0.2391,0.2367,0.2558,0.2558,0.2558,0.2558,0.1338,0.135,0.1402,0.1469,0.1579,0.1701,0.1884,0.2166,0.256,0.2764,0.2791,0.2751,0.2733,0.2748,0.2725,0.2706,0.2978,0.2979,0.2979,0.1322,0.1352,0.1372,0.145,0.1571,0.1696,0.1841,0.2095,0.2709,0.2997,0.2868,0.285,0.2783,0.2748,0.2758,0.272,0.2681,0,0]},{"header":{"parameterUnit":"m.s-1","parameterCategory":2,"la1":30.2992,"la2":30.254,"lo1":-89.0895,"lo2":-89.0443,"dy":0.0025,"dx":0.0025,"nx":19,"ny":19,"refTime":"2026-03-20T03:00:00:Z","depth":"0","parameterNumber":3,"parameterNumberName":"V-component_of_CURRENTS"},"data":[0,0,0,0.0504,0.0504,0.0497,0.0497,0.0411,0.041,0,0,0,0,0,0,0,0,0,0,0,0.0523,0.0523,0.0504,0.0504,0.0497,0.0497,0.0411,0.041,0,0,0,0,0,0,0,0,0,0,0,0.0523,0.0523,0.0523,0.0504,0.0497,0.0497,0.0411,0.044,0,0,0,0,0,0,0,0,0,0,0.0458,0.0496,0.0523,0.0523,0.0503,0.0497,0.0497,0.0442,0.0438,0.0387,0,0.0389,0,0.038,0.0401,0.04,0,0,0,0.052,0.05,0.0475,0.0523,0.0503,0.0496,0.0504,0.044,0.0435,0.0381,0.0388,0.0384,0.0378,0.04,0.0399,0.0384,0.0385,0,0,0.052,0.054,0.0479,0.0472,0.0502,0.0504,0.0504,0.0438,0.0444,0.0387,0.0382,0.0377,0.0399,0.0398,0.0383,0.0384,0,0,0,0.051,0.054,0.052,0.0476,0.0471,0.0504,0.0503,0.0449,0.0436,0.0381,0.0376,0.0398,0.0396,0.0382,0.0383,0.0458,0,0,0,0.0511,0.0533,0.052,0.0535,0.0473,0.0473,0.0515,0.0441,0.0433,0.0376,0.0398,0.0395,0.0381,0.0383,0.0454,0.0513,0,0,0,0.0523,0.0534,0.0529,0.0535,0.0521,0.0474,0.046,0.044,0.0427,0.04,0.0395,0.038,0.0382,0.0451,0.0506,0.0547,0,0,0,0.0549,0.0573,0.0531,0.0564,0.052,0.0517,0.046,0.0451,0.0434,0.0397,0.0381,0.0383,0.045,0.0502,0.0543,0.0642,0.0668,0,0,0.0595,0.0579,0.06,0.0562,0.0566,0.0519,0.0548,0.0494,0.0449,0.0397,0.0397,0.0456,0.0506,0.0546,0.0757,0.078,0,0,0,0.0626,0.0633,0.0629,0.0625,0.0599,0.0601,0.0545,0.0529,0.0513,0.0444,0.0475,0.0506,0.0528,0.0579,0.0599,0.0514,0.0392,0.0392,0.0392,0.0702,0.0687,0.0711,0.0688,0.0686,0.065,0.066,0.0631,0.0557,0.0578,0.058,0.0685,0.0743,0.0758,0.067,0.0581,0.0582,0.0582,0.0582,0.0761,0.0778,0.0766,0.0778,0.0764,0.0775,0.0762,0.0734,0.0743,0.0681,0.0697,0.0674,0.0783,0.0682,0.0587,0.0586,0.0586,0.0585,0.0585,0.0805,0.081,0.0811,0.0829,0.0859,0.0852,0.091,0.0882,0.0834,0.0857,0.0885,0.0885,0.0782,0.085,0.085,0.085,0.0851,0.0851,0.0851,0.0841,0.0841,0.0861,0.088,0.0907,0.0957,0.0999,0.1028,0.1044,0.1005,0.1005,0.0831,0.0767,0.0741,0.0859,0.0857,0.0856,0.0856,0.0855,0.0884,0.087,0.0909,0.0931,0.1,0.1089,0.1126,0.1228,0.1234,0.1258,0.1072,0.1073,0.1059,0.1044,0.1026,0.121,0.121,0.121,0.121,0.0908,0.0905,0.0953,0.1005,0.1081,0.1157,0.1324,0.1421,0.1342,0.1282,0.1167,0.111,0.1099,0.1081,0.1065,0.1044,0.1229,0.1228,0.1228,0.0929,0.0945,0.0991,0.1038,0.1121,0.1244,0.1439,0.1606,0.1443,0.1213,0.1031,0.103,0.0922,0.0912,0.086,0.0844,0.08,0,0]}],[{"header":{"parameterUnit":"m.s-1","parameterCategory":2,"la1":30.2992,"la2":30.254,"lo1":-89.0895,"lo2":-89.0443,"dy":0.0025,"dx":0.0025,"nx":19,"ny":19,"refTime":"2026-03-20T03:00:00:Z","depth":"2","parameterNumber":2,"parameterNumberName":"U-component_of_CURRENTS"},"data":[0,0,0,-0.0548,-0.0544,-0.0341,-0.034,-0.0115,-0.0113,0,0,0,0,0,0,0,0,0,0,0,-0.0608,-0.0606,-0.0548,-0.0544,-0.0342,-0.034,-0.0115,-0.0113,0,0,0,0,0,0,0,0,0,0,0,-0.0608,-0.0607,-0.0605,-0.0543,-0.0342,-0.034,-0.0115,-0.0255,0,0,0,0,0,0,0,0,0,0,-0.0446,-0.0506,-0.0607,-0.0605,-0.0542,-0.0342,-0.034,-0.0261,-0.0246,-0.0222,0,-0.0189,0,-0.0158,-0.01,-0.01,0,0,0,-0.0524,-0.0518,-0.0466,-0.0605,-0.054,-0.0342,-0.0427,-0.0253,-0.0236,-0.0202,-0.0186,-0.0177,-0.0155,-0.0099,-0.0098,0.0085,0.0086,0,0,-0.0536,-0.0567,-0.0477,-0.0455,-0.0487,-0.0434,-0.0421,-0.0242,-0.0224,-0.0185,-0.0172,-0.0151,-0.0098,-0.0096,0.0085,0.0085,0,0,0,-0.0581,-0.0575,-0.0525,-0.0465,-0.0432,-0.0429,-0.0414,-0.0231,-0.0215,-0.0169,-0.0148,-0.0097,-0.0094,0.0084,0.0085,0.0139,0,0,0,-0.0586,-0.0602,-0.053,-0.0546,-0.0436,-0.0326,-0.0408,-0.0227,-0.0206,-0.0149,-0.0097,-0.0093,0.0083,0.0084,0.0136,0.015,0,0,0,-0.0617,-0.0606,-0.0582,-0.0549,-0.0471,-0.0328,-0.03,-0.0221,-0.0194,-0.0099,-0.0092,0.0083,0.0084,0.0133,0.0146,0.0214,0,0,0,-0.0656,-0.0594,-0.0583,-0.0499,-0.0473,-0.0327,-0.0301,-0.0177,-0.0092,-0.0096,0.0083,0.0085,0.0132,0.0143,0.0211,0.0156,0.0166,0,0,-0.0598,-0.0588,-0.0536,-0.0521,-0.0393,-0.0353,-0.0211,-0.0096,-0.0067,0.0024,0.0029,0.0137,0.0146,0.0214,0.0238,0.0245,0,0,0,-0.053,-0.0492,-0.045,-0.0374,-0.0285,-0.0192,-0.0092,-0.005,0.0061,-0.0014,0.0151,0.0154,0.0196,0.0156,0.0163,0.0091,0.0091,0.0091,0.0091,-0.0497,-0.0442,-0.035,-0.0267,-0.0181,-0.0064,0.0016,0.0088,0.0115,0.0164,0.0209,0.0309,0.0268,0.0272,0.0226,0.0226,0.0227,0.0227,0.0227,-0.0422,-0.0369,-0.0293,-0.0184,-0.0096,0.0019,0.0138,0.0174,0.0292,0.0269,0.0307,0.0227,0.0282,0.0231,0.0231,0.023,0.0229,0.0229,0.0229,-0.0426,-0.0389,-0.0316,-0.0177,-0.0051,0.0065,0.0175,0.0266,0.0339,0.0393,0.0378,0.0376,0.0343,0.0436,0.0436,0.0437,0.0437,0.0437,0.0437,-0.0465,-0.0387,-0.0308,-0.0169,-0.0087,0.0028,0.0209,0.0279,0.039,0.0432,0.0432,0.038,0.0373,0.0355,0.0443,0.0442,0.0442,0.0441,0.0441,-0.0445,-0.0428,-0.0317,-0.0238,-0.0084,-0.0011,0.0137,0.0294,0.0401,0.0436,0.0457,0.0454,0.0434,0.0427,0.0411,0.0508,0.0508,0.0508,0.0508,-0.0459,-0.0436,-0.0303,-0.0209,-0.013,-0.0026,0.0112,0.0277,0.041,0.046,0.0462,0.0391,0.0389,0.0362,0.0357,0.0337,0.0416,0.0416,0.0416,-0.0439,-0.04,-0.0315,-0.022,-0.0137,-0.0063,0.0099,0.0367,0.0485,0.0414,0.0463,0.0499,0.0395,0.0392,0.0348,0.0341,0.0308,0,0]},{"header":{"parameterUnit":"m.s-1","parameterCategory":2,"la1":30.2992,"la2":30.254,"lo1":-89.0895,"lo2":-89.0443,"dy":0.0025,"dx":0.0025,"nx":19,"ny":19,"refTime":"2026-03-20T03:00:00:Z","depth":"2","parameterNumber":3,"parameterNumberName":"V-component_of_CURRENTS"},"data":[0,0,0,-0.0102,-0.0101,-0.0034,-0.0033,0.0041,0.0041,0,0,0,0,0,0,0,0,0,0,0,-0.0124,-0.0123,-0.0103,-0.0101,-0.0034,-0.0033,0.004,0.0041,0,0,0,0,0,0,0,0,0,0,0,-0.0124,-0.0123,-0.0123,-0.0101,-0.0034,-0.0033,0.004,-0.0005,0,0,0,0,0,0,0,0,0,0,-0.0068,-0.0083,-0.0124,-0.0123,-0.0101,-0.0034,-0.0033,-0.0007,-0.0002,0.0002,0,0.0008,0,0.002,0.0045,0.0045,0,0,0,-0.0089,-0.0087,-0.0078,-0.0123,-0.01,-0.0034,-0.0061,-0.0004,0.0001,0.0008,0.0009,0.0012,0.0021,0.0045,0.0045,0.0077,0.0077,0,0,-0.0093,-0.01,-0.0082,-0.0075,-0.0089,-0.0063,-0.0059,-0.0,0.0007,0.0009,0.0014,0.0022,0.0045,0.0046,0.0077,0.0077,0,0,0,-0.0112,-0.0103,-0.0094,-0.0078,-0.0068,-0.0061,-0.0057,0.0005,0.0005,0.0015,0.0023,0.0046,0.0046,0.0078,0.0077,0.0072,0,0,0,-0.0114,-0.0115,-0.0096,-0.0098,-0.007,-0.0028,-0.0052,0.0001,0.0008,0.0023,0.0046,0.0047,0.0078,0.0078,0.0072,0.0109,0,0,0,-0.0126,-0.0116,-0.0112,-0.0099,-0.0076,-0.0028,-0.0024,0.0003,0.0013,0.0045,0.0047,0.0078,0.0078,0.0073,0.0108,0.0102,0,0,0,-0.0129,-0.011,-0.0112,-0.0086,-0.0077,-0.0042,-0.0024,0.0006,0.0032,0.0046,0.0078,0.0077,0.0073,0.0108,0.0102,-0.0021,-0.003,0,0,-0.0106,-0.0107,-0.0092,-0.0092,-0.0049,-0.005,-0.0008,0.0028,0.0032,0.006,0.0061,0.0072,0.0108,0.0102,-0.0027,-0.0035,0,0,0,-0.0084,-0.0068,-0.0057,-0.0032,-0.002,0.0008,0.0026,0.0028,0.0047,0.0044,0.0072,0.0096,0.0091,0.0016,0.0009,0.0077,0.0077,0.0077,0.0077,-0.006,-0.0044,-0.0007,0.0014,0.0032,0.0047,0.0062,0.0068,0.0056,0.0051,0.0089,0.0084,0.0002,-0.0004,0.0065,0.0065,0.0065,0.0065,0.0065,-0.0013,0.001,0.0034,0.0075,0.0087,0.0112,0.0116,0.0101,0.01,0.0087,0.0081,0.0012,-0.0011,0.0065,0.0065,0.0065,0.0065,0.0065,0.0065,-0.0002,0.0015,0.004,0.0099,0.0143,0.0158,0.0197,0.0177,0.0127,0.0121,0.0021,0.0019,0.0095,0.0099,0.0099,0.0099,0.0099,0.0099,0.0099,-0.0005,0.0026,0.0074,0.0131,0.0167,0.0218,0.0241,0.0214,0.0104,0.0036,0.0034,0.0096,0.0095,0.0097,0.0101,0.0101,0.01,0.01,0.01,0.0032,0.0029,0.0104,0.0145,0.0229,0.0253,0.0268,0.0145,0.0101,0.0001,-0.0029,-0.0027,-0.003,-0.0027,-0.0028,-0.0056,-0.0056,-0.0056,-0.0056,0.0042,0.0052,0.0144,0.0208,0.0255,0.0275,0.0197,0.006,-0.0075,-0.0171,-0.0165,-0.0214,-0.0206,-0.022,-0.0213,-0.0217,-0.0294,-0.0295,-0.0295,0.0077,0.0096,0.0163,0.0217,0.0261,0.0264,0.0145,0.0014,-0.0189,-0.0297,-0.0138,-0.0085,-0.0146,-0.0138,-0.0151,-0.0142,-0.0146,0,0]}],[{"header":{"parameterUnit":"m.s-1","parameterCategory":2,"la1":30.2992,"la2":30.254,"lo1":-89.0895,"lo2":-89.0443,"dy":0.0025,"dx":0.0025,"nx":19,"ny":19,"refTime":"2026-03-20T03:00:00:Z","depth":"4","parameterNumber":2,"parameterNumberName":"U-component_of_CURRENTS"},"data":[0,0,0,-0.0008,-0.0008,-0.0039,-0.0039,-0.0099,-0.0099,0,0,0,0,0,0,0,0,0,0,0,0.0002,0.0002,-0.0008,-0.0008,-0.0039,-0.0039,-0.0099,-0.0099,0,0,0,0,0,0,0,0,0,0,0,0.0002,0.0002,0.0002,-0.0008,-0.0039,-0.0039,-0.0099,-0.0073,0,0,0,0,0,0,0,0,0,0,-0.0041,-0.0034,0.0002,0.0002,-0.0008,-0.0039,-0.0039,-0.0071,-0.0074,-0.0088,0,-0.0085,0,-0.0089,-0.0103,-0.0103,0,0,0,-0.0018,-0.0031,-0.0029,0.0002,-0.0009,-0.0039,-0.0028,-0.0073,-0.0076,-0.0091,-0.0086,-0.0088,-0.009,-0.0103,-0.0103,-0.0138,-0.0138,0,0,-0.0017,-0.0017,-0.0027,-0.0031,-0.0008,-0.0027,-0.0029,-0.0075,-0.0081,-0.0086,-0.009,-0.0091,-0.0103,-0.0104,-0.0138,-0.0138,0,0,0,-0.0005,-0.0015,-0.0012,-0.0029,-0.003,-0.0027,-0.003,-0.008,-0.0075,-0.009,-0.0092,-0.0104,-0.0104,-0.0138,-0.0138,-0.0111,0,0,0,-0.0004,-0.0008,-0.0011,-0.0013,-0.0029,-0.0055,-0.0034,-0.0072,-0.0077,-0.0092,-0.0104,-0.0105,-0.0138,-0.0138,-0.0112,-0.0096,0,0,0,0.0002,-0.0008,-0.0006,-0.0013,-0.002,-0.0054,-0.0053,-0.0073,-0.0078,-0.0103,-0.0105,-0.0139,-0.0138,-0.0113,-0.0098,-0.0085,0,0,0,-0.0004,0.0,-0.0006,-0.0008,-0.002,-0.0042,-0.0053,-0.0083,-0.0105,-0.0104,-0.0138,-0.0138,-0.0113,-0.0099,-0.0086,-0.0059,0,0,0,0.0,0.0,-0.0001,-0.0006,-0.0017,-0.0039,-0.0058,-0.0092,-0.0107,-0.0127,-0.0127,-0.0112,-0.0098,-0.0085,-0.0058,0,0,0,0,-0.0001,-0.0,-0.0006,-0.0014,-0.0032,-0.0043,-0.0079,-0.0089,-0.0105,-0.0117,-0.0119,-0.0111,-0.0104,-0.0091,-0.0138,-0.0138,-0.0138,-0.0138,-0.0138,0.001,0.0002,-0.0003,-0.0013,-0.0028,-0.0056,-0.0066,-0.0083,-0.0105,-0.0104,-0.0094,-0.0073,-0.006,-0.0103,-0.0103,-0.0103,-0.0103,-0.0103,-0.0103,0.0016,0.0012,0.0004,-0.0002,-0.0012,-0.0029,-0.0048,-0.0058,-0.0061,-0.0077,-0.0072,-0.007,-0.01,-0.0101,-0.0101,-0.0101,-0.0102,-0.0102,-0.0102,0.0017,0.0015,0.0015,0.0011,0.0008,-0.0008,-0.0005,-0.0021,-0.0032,-0.0027,-0.0018,-0.0055,-0.0051,-0.0024,-0.0024,-0.0024,-0.0024,-0.0024,-0.0024,0.0017,0.0018,0.0022,0.002,0.0022,0.0022,0.0018,0.0021,0.0011,0.0018,-0.0017,-0.0047,-0.005,-0.0047,-0.0022,-0.0022,-0.0023,-0.0023,-0.0023,0.0006,0.0015,0.0021,0.0026,0.0035,0.0036,0.0034,0.0061,0.0069,0.0082,0.0038,0.0035,0.0028,0.0024,0.0029,0.0077,0.0078,0.0078,0,0.0002,0.0006,0.0026,0.004,0.0051,0.0045,0.007,0.0082,0.0084,0.0082,0.0055,0.0003,0.0001,-0.001,-0.0013,-0.0009,0,0,0,-0.0006,0.0002,0.0022,0.0047,0.0061,0.0074,0.0078,0.0094,0.008,0.0118,0.009,0.0087,0.0024,-0.0016,-0.0035,-0.0038,-0.0035,0,0]},{"header":{"parameterUnit":"m.s-1","parameterCategory":2,"la1":30.2992,"la2":30.254,"lo1":-89.0895,"lo2":-89.0443,"dy":0.0025,"dx":0.0025,"nx":19,"ny":19,"refTime":"2026-03-20T03:00:00:Z","depth":"4","parameterNumber":3,"parameterNumberName":"V-component_of_CURRENTS"},"data":[0,0,0,-0.0489,-0.049,-0.0571,-0.0572,-0.0645,-0.0645,0,0,0,0,0,0,0,0,0,0,0,-0.0465,-0.0465,-0.0488,-0.049,-0.0571,-0.0572,-0.0645,-0.0645,0,0,0,0,0,0,0,0,0,0,0,-0.0464,-0.0465,-0.0465,-0.049,-0.0571,-0.0572,-0.0644,-0.0594,0,0,0,0,0,0,0,0,0,0,-0.0521,-0.0509,-0.0465,-0.0465,-0.0491,-0.0571,-0.0572,-0.0593,-0.0598,-0.0594,0,-0.0602,0,-0.0616,-0.0648,-0.0648,0,0,0,-0.0505,-0.0505,-0.0512,-0.0465,-0.0491,-0.0571,-0.0539,-0.0596,-0.0601,-0.0601,-0.0603,-0.0606,-0.0617,-0.0648,-0.0648,-0.0715,-0.0715,0,0,-0.05,-0.0496,-0.0508,-0.0515,-0.0505,-0.0536,-0.0541,-0.06,-0.061,-0.0603,-0.0608,-0.0618,-0.0648,-0.0649,-0.0714,-0.0715,0,0,0,-0.0477,-0.0493,-0.0499,-0.0512,-0.0524,-0.0538,-0.0544,-0.0609,-0.0606,-0.0609,-0.0619,-0.0649,-0.0649,-0.0714,-0.0714,-0.0719,0,0,0,-0.0475,-0.0478,-0.0497,-0.0498,-0.0523,-0.0574,-0.0551,-0.0603,-0.0609,-0.0619,-0.0649,-0.065,-0.0713,-0.0714,-0.0718,-0.0702,0,0,0,-0.0462,-0.0477,-0.0481,-0.0497,-0.0523,-0.0573,-0.0576,-0.0605,-0.0615,-0.0648,-0.065,-0.0713,-0.0714,-0.0717,-0.0701,-0.0683,0,0,0,-0.0463,-0.0474,-0.0481,-0.0507,-0.0522,-0.0566,-0.0576,-0.0623,-0.0653,-0.0649,-0.0713,-0.0714,-0.0716,-0.0701,-0.0683,-0.0601,0,0,0,-0.0475,-0.0476,-0.0492,-0.05,-0.0532,-0.0557,-0.0609,-0.0652,-0.0666,-0.0693,-0.0695,-0.0718,-0.0701,-0.0683,-0.0661,0,0,0,0,-0.0495,-0.0504,-0.0516,-0.0542,-0.0568,-0.0601,-0.0645,-0.0665,-0.0709,-0.0686,-0.0737,-0.0726,-0.0714,-0.0668,-0.0719,-0.0719,-0.0719,-0.0719,-0.0719,-0.0515,-0.0526,-0.0552,-0.0569,-0.0597,-0.0643,-0.0673,-0.0709,-0.0723,-0.0747,-0.0745,-0.0752,-0.0708,-0.0771,-0.0771,-0.0771,-0.0771,-0.0771,-0.0771,-0.0531,-0.0544,-0.0568,-0.0595,-0.0622,-0.0665,-0.0705,-0.0725,-0.0751,-0.0766,-0.0755,-0.0696,-0.0772,-0.0772,-0.0772,-0.0772,-0.0772,-0.0772,-0.0772,-0.0538,-0.0541,-0.0564,-0.0597,-0.0636,-0.0675,-0.0687,-0.0722,-0.0745,-0.0747,-0.0685,-0.0746,-0.0726,-0.0741,-0.0741,-0.0741,-0.074,-0.074,-0.074,-0.0528,-0.0545,-0.0562,-0.0597,-0.0621,-0.0645,-0.0673,-0.0671,-0.0695,-0.067,-0.074,-0.0741,-0.0742,-0.0725,-0.0738,-0.0739,-0.0739,-0.0739,-0.0739,-0.0519,-0.0527,-0.0543,-0.0564,-0.0602,-0.0606,-0.063,-0.0597,-0.0584,-0.0564,-0.0625,-0.0631,-0.0612,-0.0616,-0.0593,-0.0568,-0.0567,-0.0566,0,-0.0507,-0.0514,-0.0524,-0.0542,-0.0555,-0.0582,-0.053,-0.0525,-0.0539,-0.0534,-0.0606,-0.0678,-0.0681,-0.0664,-0.0666,-0.0641,0,0,0,-0.0494,-0.0499,-0.05,-0.0524,-0.0538,-0.0514,-0.0515,-0.0492,-0.0539,-0.0487,-0.054,-0.0547,-0.0658,-0.0732,-0.0717,-0.0719,-0.0689,0,0]}]]